Auburn, AL

12:01 AM CST on December 09, 2016 (GMT -0600)
Auburn-opelika-pitts

Weather History for KAUO - June, 2013

Change the Weather History Date:

Thursday, June 27, 2013

  Actual Average Record
Temperature  
Mean Temperature 81 °F -  
Max Temperature 90 °F - 96 °F (1971)
Min Temperature 72 °F - 57 °F (1981)
Cooling Degree Days 16    
Month to date cooling degree days 319  
Year to date cooling degree days 569  
Since 1 June cooling degree days 319  
Growing Degree Days 29 (Base 50)    
Moisture  
Dew Point 70 °F    
Average Humidity 78    
Maximum Humidity 94    
Minimum Humidity 58    
Precipitation  
Precipitation 0.40 in - 2.56 in (1999)
Month to date precipitation 2.15  
Year to date precipitation 23.70  
Sea Level Pressure  
Sea Level Pressure 29.98 in    
Wind  
Wind Speed 10 mph (WSW)    
Max Wind Speed 15 mph    
Max Gust Speed 22 mph    
Visibility 10 miles    
Events Thunderstorm    
T = Trace of Precipitation, MM = Missing Value Source: NWS Daily Summary

Daily Weather History Graph

Daily Weather History Graph

Search for Another Location

Airport or City:

Trip Planner

Search our weather history database for the weather conditions in past years. The results will help you decide how hot, cold, wet, or windy it might be!

Date:

Astronomy

Jun. 27, 2013 Rise Set
Actual Time 5:36 AM CDT 7:53 PM CDT
Civil Twilight 5:07 AM CDT 8:21 PM CDT
Nautical Twilight 4:32 AM CDT 8:56 PM CDT
Astronomical Twilight 3:54 AM CDT 9:34 PM CDT
Moon 11:09 PM CDT (6/27) 10:19 AM CDT (6/27)
Length of Visible Light 15h 14m
Length of Day
14h 17m
Waning Gibbous, 76% of the Moon is Illuminated
Jun 27
Waning Gibbous
Jun 29
Last Quarter
Jul 8
New
Jul 15
First Quarter
Jul 22
Full

Hourly Weather History & Observations

Time (CDT) Temp. Heat Index Dew Point Humidity Pressure Visibility Wind Dir Wind Speed Gust Speed Precip Events Conditions
12:15 AM 77.0 °F - 69.8 °F 78% 30.02 in 10.0 mi SW 6.9 mph - N/A   Mostly Cloudy
12:35 AM 77.0 °F - 69.8 °F 78% 30.02 in 10.0 mi WSW 8.1 mph - N/A   Partly Cloudy
12:55 AM 75.2 °F - 69.8 °F 83% 30.02 in 10.0 mi WSW 9.2 mph - N/A   Clear
1:15 AM 75.2 °F - 69.8 °F 83% 30.03 in 10.0 mi WSW 8.1 mph - N/A   Clear
1:35 AM 75.2 °F - 69.8 °F 83% 30.03 in 10.0 mi WSW 6.9 mph - N/A   Clear
1:55 AM 75.2 °F - 69.8 °F 83% 30.03 in 10.0 mi WSW 6.9 mph - N/A   Clear
2:15 AM 75.2 °F - 69.8 °F 83% 30.03 in 10.0 mi WSW 5.8 mph - N/A   Clear
2:35 AM 75.2 °F - 69.8 °F 83% 30.02 in 10.0 mi SW 9.2 mph - N/A   Clear
2:55 AM 73.4 °F - 69.8 °F 88% 30.02 in 10.0 mi WSW 8.1 mph - N/A   Clear
3:15 AM 73.4 °F - 69.8 °F 88% 30.02 in 10.0 mi WSW 6.9 mph - N/A   Clear
3:35 AM 73.4 °F - 69.8 °F 88% 30.02 in 10.0 mi WSW 6.9 mph - N/A   Clear
3:55 AM 73.4 °F - 69.8 °F 88% 30.02 in 10.0 mi WSW 9.2 mph - N/A   Partly Cloudy
4:15 AM 73.4 °F - 69.8 °F 88% 30.02 in 10.0 mi WSW 9.2 mph - N/A   Mostly Cloudy
4:35 AM 73.4 °F - 69.8 °F 88% 30.02 in 10.0 mi West 9.2 mph - N/A   Overcast
4:55 AM 73.4 °F - 69.8 °F 88% 30.02 in 10.0 mi West 6.9 mph - N/A   Overcast
5:15 AM 73.4 °F - 69.8 °F 88% 30.01 in 10.0 mi West 6.9 mph - N/A   Overcast
5:35 AM 73.4 °F - 71.6 °F 94% 30.01 in 10.0 mi West 6.9 mph - N/A   Overcast
5:55 AM 73.4 °F - 71.6 °F 94% 30.01 in 10.0 mi West 9.2 mph - N/A   Overcast
6:15 AM 73.4 °F - 71.6 °F 94% 30.01 in 9.0 mi West 9.2 mph - N/A   Overcast
6:35 AM 73.4 °F - 71.6 °F 94% 30.02 in 8.0 mi West 11.5 mph 17.3 mph N/A   Overcast
6:55 AM 73.4 °F - 71.6 °F 94% 30.01 in 8.0 mi West 10.4 mph 19.6 mph N/A   Overcast
7:15 AM 73.4 °F - 71.6 °F 94% 30.01 in 10.0 mi West 9.2 mph 16.1 mph N/A   Overcast
7:35 AM 75.2 °F - 71.6 °F 89% 30.01 in 10.0 mi West 10.4 mph - N/A   Overcast
7:55 AM 77.0 °F - 71.6 °F 83% 30.02 in 10.0 mi West 9.2 mph - N/A   Overcast
8:15 AM 78.8 °F - 71.6 °F 78% 30.02 in 10.0 mi WSW 6.9 mph - N/A   Overcast
8:35 AM 77.0 °F - 71.6 °F 83% 30.02 in 10.0 mi WSW 5.8 mph - N/A   Overcast
8:55 AM 77.0 °F - 71.6 °F 83% 30.02 in 10.0 mi WSW 8.1 mph - N/A   Overcast
9:15 AM 78.8 °F - 71.6 °F 78% 30.03 in 10.0 mi SW 9.2 mph - N/A   Mostly Cloudy
9:35 AM 78.8 °F - 71.6 °F 78% 30.03 in 10.0 mi West 9.2 mph - N/A   Mostly Cloudy
9:55 AM 78.8 °F - 69.8 °F 74% 30.02 in 10.0 mi West 11.5 mph - N/A   Mostly Cloudy
10:15 AM 80.6 °F 83.9 °F 69.8 °F 70% 30.02 in 10.0 mi West 5.8 mph - N/A   Partly Cloudy
10:35 AM 80.6 °F 83.9 °F 69.8 °F 70% 30.02 in 10.0 mi West 8.1 mph - N/A   Clear
10:55 AM 78.8 °F - 71.6 °F 78% 30.02 in 10.0 mi WSW 9.2 mph - N/A   Mostly Cloudy
11:15 AM 80.6 °F 84.6 °F 71.6 °F 74% 30.02 in 10.0 mi West 9.2 mph - N/A   Overcast
11:35 AM 82.4 °F 87.2 °F 71.6 °F 70% 30.01 in 10.0 mi West 6.9 mph 16.1 mph N/A   Mostly Cloudy
11:55 AM 84.2 °F 89.6 °F 71.6 °F 66% 30.00 in 10.0 mi West 11.5 mph 18.4 mph N/A   Scattered Clouds
12:15 PM 84.2 °F 89.6 °F 71.6 °F 66% 29.99 in 10.0 mi West 5.8 mph - N/A   Partly Cloudy
12:35 PM 86.0 °F 91.8 °F 71.6 °F 62% 29.99 in 10.0 mi West 15.0 mph 19.6 mph N/A   Mostly Cloudy
12:55 PM 84.2 °F 89.6 °F 71.6 °F 66% 29.98 in 10.0 mi West 13.8 mph - N/A   Mostly Cloudy
1:15 PM 84.2 °F 89.6 °F 71.6 °F 66% 29.98 in 10.0 mi West 10.4 mph 16.1 mph N/A   Mostly Cloudy
1:35 PM 84.2 °F 89.6 °F 71.6 °F 66% 29.97 in 10.0 mi WSW 10.4 mph - N/A   Mostly Cloudy
1:55 PM 84.2 °F 89.6 °F 71.6 °F 66% 29.97 in 10.0 mi West 8.1 mph - N/A   Mostly Cloudy
2:15 PM 86.0 °F 91.8 °F 71.6 °F 62% 29.97 in 10.0 mi WSW 11.5 mph - N/A   Mostly Cloudy
2:35 PM 87.8 °F 93.8 °F 71.6 °F 58% 29.96 in 10.0 mi West 11.5 mph 17.3 mph N/A   Mostly Cloudy
2:55 PM 87.8 °F 93.8 °F 71.6 °F 58% 29.95 in 10.0 mi West 15.0 mph 21.9 mph N/A   Scattered Clouds
3:15 PM 87.8 °F 93.8 °F 71.6 °F 58% 29.94 in 10.0 mi WSW 9.2 mph 19.6 mph N/A   Scattered Clouds
3:35 PM 87.8 °F 95.6 °F 73.4 °F 62% 29.93 in 10.0 mi WSW 13.8 mph 18.4 mph N/A   Mostly Cloudy
3:55 PM 87.8 °F 93.8 °F 71.6 °F 58% 29.92 in 10.0 mi WSW 9.2 mph - N/A   Mostly Cloudy
4:15 PM 87.8 °F 93.8 °F 71.6 °F 58% 29.92 in 10.0 mi WSW 10.4 mph 18.4 mph N/A   Scattered Clouds
4:35 PM 86.0 °F 91.8 °F 71.6 °F 62% 29.91 in 10.0 mi WSW 13.8 mph 19.6 mph N/A   Scattered Clouds
4:55 PM 86.0 °F 91.8 °F 71.6 °F 62% 29.90 in 10.0 mi WSW 13.8 mph 19.6 mph N/A   Scattered Clouds
5:15 PM 86.0 °F 91.8 °F 71.6 °F 62% 29.90 in 10.0 mi WSW 10.4 mph - N/A   Partly Cloudy
5:35 PM 86.0 °F 91.8 °F 71.6 °F 62% 29.90 in 10.0 mi WSW 10.4 mph - N/A   Clear
5:55 PM 84.2 °F 89.6 °F 71.6 °F 66% 29.90 in 10.0 mi WSW 10.4 mph - N/A   Mostly Cloudy
6:15 PM 84.2 °F 89.6 °F 71.6 °F 66% 29.90 in 10.0 mi WNW 5.8 mph - N/A Thunderstorm Mostly Cloudy
6:35 PM 75.2 °F - 66.2 °F 73% 29.94 in 8.0 mi WNW 20.7 mph 34.5 mph 0.13 in Thunderstorm Mostly Cloudy
6:55 PM 71.6 °F - 64.4 °F 78% 29.90 in 5.0 mi South 5.8 mph - 0.32 in   Mostly Cloudy
7:15 PM 73.4 °F - 64.4 °F 73% 29.92 in 5.0 mi SSW 9.2 mph - N/A   Clear
7:35 PM 71.6 °F - 66.2 °F 83% 29.93 in 10.0 mi Calm Calm - N/A   Partly Cloudy
7:55 PM 73.4 °F - 66.2 °F 78% 29.96 in 10.0 mi North 10.4 mph 31.1 mph N/A Thunderstorm Mostly Cloudy
8:15 PM 71.6 °F - 64.4 °F 78% 29.92 in 10.0 mi SSW 8.1 mph - 0.07 in Thunderstorm Thunderstorm
8:35 PM 71.6 °F - 66.2 °F 83% 29.91 in 10.0 mi West 5.8 mph - 0.07 in   Scattered Clouds
8:55 PM 71.6 °F - 66.2 °F 83% 29.93 in 7.0 mi WSW 8.1 mph - 0.07 in   Partly Cloudy
9:15 PM 73.4 °F - 66.2 °F 78% 29.92 in 10.0 mi SW 9.2 mph - N/A   Clear
9:35 PM 71.6 °F - 66.2 °F 83% 29.92 in 10.0 mi SSW 5.8 mph - N/A   Clear
9:55 PM 71.6 °F - 66.2 °F 83% 29.93 in 10.0 mi SSW 4.6 mph - N/A Thunderstorm Clear
10:15 PM 71.6 °F - 68.0 °F 88% 29.93 in 10.0 mi SW 5.8 mph - N/A Thunderstorm Clear
10:35 PM 73.4 °F - 68.0 °F 83% 29.94 in 10.0 mi WSW 9.2 mph - N/A Thunderstorm Scattered Clouds
10:55 PM 73.4 °F - 69.8 °F 88% 29.93 in 10.0 mi WNW 8.1 mph - N/A Thunderstorm Thunderstorm
11:15 PM 73.4 °F - 69.8 °F 88% 29.94 in 10.0 mi WNW 3.5 mph - 0.01 in Thunderstorm Thunderstorm
11:35 PM 71.6 °F - 69.8 °F 94% 29.93 in 10.0 mi Calm Calm - 0.01 in Thunderstorm Thunderstorm
11:55 PM 73.4 °F - 69.8 °F 88% 29.92 in 10.0 mi Calm Calm - 0.01 in Thunderstorm Thunderstorm